Weather Roundup
Issued by NWS Chicago, IL

Home | Current Version | Previous Version | Graphics & Text | Print | Product List | Glossary On
Versions: 1 2 3 4 5 6 7 8 9 10 11 12 13 14 15 16 17 18 19 20 21 22 23 24 25 26 27 28 29 30 31 32 33 34 35 36 37 38 39 40 41 42 43 44 45 46 47 48 49 50
636
NZUS59 KLOT 281503
HRRLOT

CHICAGO AREA WEATHER ROUNDUP
NATIONAL WEATHER SERVICE CHICAGO/ROMEOVILLE IL
1000 AM CDT SUN AUG 28 2016

NOTE: "FAIR" INDICATES FEW OR NO CLOUDS BELOW 12,000 FEET WITH NO
SIGNIFICANT WEATHER AND/OR OBSTRUCTIONS TO VISIBILITY.

* THESE STATIONS ARE NOT UNDER NWS QUALITY CONTROL. THEY ALSO MAY NOT
  REPORT WEATHER SUCH AS PRECIPITATION OR FOG.

ILZ005-006-012>014-019>023-281600-
NORTHEAST ILLINOIS

CITY           SKY/WX    TMP DP  RH WIND       PRES   REMARKS
OHARE          MOSUNNY   79  70  74 E6        30.20R HX  82
MIDWAY         PTSUNNY   81  71  71 NE9       30.19S HX  85
AURORA         MOSUNNY   80  72  76 E6        30.20S HX  84
LANSING*       MOSUNNY   80  75  84 CALM      30.19S HX  85
JOLIET*        MOSUNNY   82  76  81 NE3       30.19S HX  88
WAUKEGAN       CLOUDY    74  69  85 NE5       30.22R
DUPAGE AIRPORT SUNNY     78  70  76 E5        30.20R HX  80
WHEELING       CLOUDY    77  70  79 NE7       30.22R
KANKAKEE*      MOSUNNY   80  73  80 CALM      30.20S HX  84
MORRIS*        MOSUNNY   80  75  84 CALM      30.18S HX  84
LEWIS AIRPORT* MOSUNNY   80  76  88 NE6       30.19S HX  86
$$

WIZ051-052-058>065-066-070>072-281600-
SOUTHEAST WISCONSIN

CITY           SKY/WX    TMP DP  RH WIND       PRES   REMARKS
MILWAUKEE      CLOUDY    69  65  86 NE12      30.23S FOG
KENOSHA*       MOSUNNY   75  67  76 E6        30.23R
RACINE*        FOG       67  65  93 N10       30.24R VSB 1/2
WAUKESHA       FOG       64  64 100 CALM      30.25R VSB 1
$$

INZ001>003-010>013-019-020-281600-
NORTHWEST INDIANA

CITY           SKY/WX    TMP DP  RH WIND       PRES   REMARKS
GARY*          PTSUNNY   79  75  89 VRB7      30.20R HX  82
MICHIGAN CITY* NOT AVBL
RENSSELAER*    NOT AVBL
VALPARAISO     MOSUNNY   80  73  79 VRB3      30.20S HX  84
$$

LMZ740>746-281600-
SOUTHERN LAKE MICHIGAN

STATION/POSITION TIME  SKY/WX   TEMP WIND        PRES    VSBY
                                AIR  DIR/SP/G
                 (UTC)          (F)  (DEG/KT/KT) (MB)    (MI)
HARRISON CRIB    1400            74   40/  6/  6   N/A
BURNHAM HARBOR   1500            77   30/  5/  6   N/A
CALUMET HARBOR   1400            76   10/  5/  7 1022.0R
BURNS HARBOR     1400            74  200/  3/  4 1022.7R
MICHIGAN CITY    1400            74   20/ 10/ 11   N/A
$$

ABBREVIATIONS USED IN REMARKS
   TC - TEMPERATURE IN CELSIUS
  WCI - WIND CHILL INDEX
   HX - HEAT INDEX
  VSB - VISIBILITY
$$




USA.gov is the U.S. government's official web portal to all federal, state and local government web resources and services.